• Processing (Info)

  • MPEC 2011-S64 : 2011 SS67

    The following Minor Planet Electronic Circular may be linked-to from your own Web pages, but must not otherwise be redistributed electronically.

    A form allowing access to any MPEC is at the bottom of this page.


    Read MPEC 2011-S63 Read MPEC 2011-S65


    M.P.E.C. 2011-S64                                Issued 2011 Sept. 25, 19:08 UT
    
         The Minor Planet Electronic Circulars contain information on unusual
             minor planets and routine data on comets.  They are published
       on behalf of Commission 20 of the International Astronomical Union by the
              Minor Planet Center, Smithsonian Astrophysical Observatory,
                              Cambridge, MA 02138, U.S.A.
    
                 Prepared using the Tamkin Foundation Computer Network
    
                                  MPC@CFA.HARVARD.EDU
                URL https://www.minorplanetcenter.net/    ISSN 1523-6714
    
                                       2011 SS67
    
    Observations:
         K11S67S* C2011 09 23.36383 00 46 45.55 +05 33 08.2          21.1 VrES064G96
         K11S67S  C2011 09 23.36906 00 46 46.05 +05 32 59.4          20.7 VrES064G96
         K11S67S  C2011 09 23.39961 00 46 48.97 +05 32 06.8          20.7 VrES064G96
         K11S67S  C2011 09 23.41135 00 46 50.08 +05 31 46.0          21.0 VrES064G96
         K11S67S  C2011 09 23.45815 00 46 54.58 +05 30 25.7          21.0 VrES064G96
         K11S67S  C2011 09 23.45885 00 46 54.66 +05 30 24.3          20.9 VrES064G96
         K11S67S  C2011 09 23.45955 00 46 54.73 +05 30 22.7          20.9 VrES064G96
         K11S67S  C2011 09 23.46024 00 46 54.80 +05 30 22.1          20.9 VrES064G96
         K11S67S |C2011 09 24.25030 00 48 18.07 +05 07 48.4          20.9 VoES064807
         K11S67S |C2011 09 24.26013 00 48 19.02 +05 07 31.2          20.8 VoES064807
         K11S67S |C2011 09 24.26990 00 48 19.96 +05 07 13.7          21.1 VoES064807
         K11S67S  C2011 09 24.39722 00 48 33.22 +05 03 01.1          20.7 VrES064G96
         K11S67S  C2011 09 24.40263 00 48 33.73 +05 02 51.5          20.5 VrES064G96
         K11S67S  C2011 09 24.40806 00 48 34.27 +05 02 42.0          20.5 VrES064G96
         K11S67S  C2011 09 24.41344 00 48 34.81 +05 02 32.1          20.2 VrES064G96
         K11S67S |C2011 09 25.16170 00 49 55.29 +04 40 28.6          21.0 VoES064807
         K11S67S |C2011 09 25.16889 00 49 55.99 +04 40 15.2          21.2 VoES064807
         K11S67S |C2011 09 25.17644 00 49 56.71 +04 40 01.5          20.9 VoES064807
         K11S67S KC2011 09 25.29439800 50 08.87 +04 35 56.0          20.3 RuES064H36
         K11S67S KC2011 09 25.31234000 50 10.60 +04 35 23.2          20.5 RuES064H36
         K11S67S IC2011 09 25.32279800 50 11.69 +04 35 04.0          20.5 RuES064H36
    
    Observer details:
    807 Cerro Tololo.  Observers R. Holmes, T. Linder, V. Hoette.  Measurers
        R. Holmes, T. Linder.  0.41-m f/11 Ritchey-Chretien + CCD.
    G96 Mt. Lemmon Survey.  Observers R. E. Hill, A. D Grauer.  Measurers
        J. D. Ahern, E. C. Beshore, A. Boattini, G. J. Garradd, A. R. Gibbs,
        A. D. Grauer, R. E. Hill, R. A. Kowalski, S. M. Larson, R. H. McNaught.
        1.5-m reflector + CCD.
    H36 Sandlot Observatory, Scranton.  Observer G. Hug.  0.56-m reflector + CCD.
    
    Orbital elements:
    2011 SS67                                                Earth MOID = 0.2671 AU
    Epoch 2011 Aug. 27.0 TT = JDT 2455800.5                 MPC
    M 346.36707              (2000.0)            P               Q
    n   0.18489912     Peri.  219.17480     +0.73260055     -0.68051811
    a   3.0514961      Node   183.79802     +0.66513894     +0.72006550
    e   0.5968244      Incl.   12.05984     +0.14452208     +0.13564947
    P   5.33           H   21.9           G   0.15           U   7
    Residuals in seconds of arc
    110923 G96  0.0   0.1+    110923 G96  0.0   0.2+    110924 G96  0.2+  0.2-
    110923 G96  0.1+  0.2+    110924 807  0.1-  0.2-    110925 807  0.0   0.3+
    110923 G96  0.3+  0.2+    110924 807  0.0   0.0     110925 807  0.0   0.0
    110923 G96  0.1+  0.3-    110924 807  0.0   0.1-    110925 807  0.3-  0.1+
    110923 G96  0.2-  0.2+    110924 G96  0.1-  0.2-    110925 H36  0.2+  0.2-
    110923 G96  0.0   0.0     110924 G96  0.3-  0.1-    110925 H36  0.3-  0.0
    110923 G96  0.0   0.4-    110924 G96  0.1-  0.1+    110925 H36  0.6+  0.1+
    
    Ephemeris:
    2011 SS67                a,e,i = 3.05, 0.60, 12                  q = 1.2303
    Date    TT    R. A. (2000) Decl.     Delta      r     Elong.  Phase     V
    2011 08 26    00 05 15.5 +12 36 41   0.5631  1.5050   144.5    23.0    22.6
    ...
    2011 09 10    00 25 38.9 +10 22 37   0.4355  1.4157   155.8    16.9    21.7
    ...
    2011 09 18    00 37 50.2 +07 51 29   0.3809  1.3731   162.5    12.7    21.2
    ...
    2011 09 24    00 47 52.0 +05 14 57   0.3467  1.3439   167.4     9.4    20.9
    2011 09 25    00 49 37.5 +04 45 10   0.3416  1.3393   168.2     8.8    20.8
    2011 09 26    00 51 24.5 +04 14 21   0.3367  1.3348   168.9     8.3    20.7
    ...
    2011 10 02    01 02 42.9 +00 49 03   0.3108  1.3093   171.6     6.4    20.4
    ...
    2011 10 10    01 19 32.6 -04 27 37   0.2863  1.2803   168.1     9.3    20.3
    ...
    2011 10 25    01 55 46.2 -14 36 33   0.2707  1.2429   153.5    20.9    20.6
    
    A. U. Tomatic                (C) Copyright 2011 MPC           M.P.E.C. 2011-S64
    

    Read MPEC 2011-S63 Read MPEC 2011-S65


    MPEC number:

    Enter an MPEC number in one of the following forms:

    • 1997-B01 (the full form)
    • J97B01 (the packed version of the full form)
    • B01 (the abbreviated form)